Lid_Strength_Index
5 5 4 4 4 4 5 5 5 5 5 5 5 5 5 5 5 5 6 7 9 11 10 8 7 9 9 10 11 8 8 8 8 11 12 13 14 13 14 13 14 15 15 16 15 17 18 9 10 12 9 7 8 7
5 5 4 4 5 5 5 5 5 5 5 5 5 5 5 5 5 5 7 5 6 10 10 6 5 4 6 6 8 7 8 8 7 10 10 10 13 12 13 16 11 15 13 14 14 14 10 10 12 8 6 7 8 7
5 5 5 5 6 6 6 6 6 6 6 6 6 5 5 5 5 5 6 5 7 10 10 9 8 5 4 5 4 9 6 5 6 6 9 9 13 11 15 14 13 11 10 14 13 12 13 9 7 8 9 10 7 5
6 6 6 6 6 7 7 7 7 6 6 6 6 6 5 5 5 5 6 5 6 9 12 10 6 5 3 4 5 5 5 5 5 6 8 10 12 9 12 11 12 10 9 11 11 10 9 8 8 6 6 5 5 5
7 6 6 6 7 7 7 7 7 6 6 6 5 5 5 5 5 4 4 5 5 9 12 10 7 5 4 4 6 6 6 7 7 8 9 10 8 9 8 9 11 8 10 12 13 8 9 9 6 7 6 7 7 8
7 7 7 7 7 7 7 7 7 6 6 5 5 5 5 5 4 5 8 5 5 6 10 12 6 5 4 4 5 7 7 7 6 8 8 7 6 8 12 12 8 7 6 6 8 6 7 7 6 7 7 7 7 8
8 7 7 7 7 7 7 7 7 6 5 5 5 5 5 5 5 7 8 5 4 6 10 11 9 6 5 4 4 5 5 6 6 7 8 8 7 7 10 11 7 7 6 6 6 6 8 8 8 7 8 8 7 8
8 8 8 8 8 8 7 7 6 5 5 5 5 5 4 4 5 6 4 3 4 7 8 11 10 8 4 6 7 4 7 6 6 7 7 8 7 7 11 8 6 7 6 7 7 7 8 7 8 9 8 8 9 9
8 8 8 8 8 7 7 7 6 6 6 6 6 4 4 5 7 5 2 2 4 6 10 9 11 11 5 6 6 6 6 10 6 9 8 8 9 11 8 7 6 6 7 8 7 7 7 8 8 10 9 10 10 10
8 8 8 8 7 8 7 7 6 6 6 7 8 7 7 6 5 4 4 6 8 7 7 9 7 9 6 6 7 7 7 10 11 9 6 10 10 7 6 5 5 5 6 6 8 8 8 9 10 11 11 11 10 10
8 8 8 8 8 8 7 7 6 7 8 9 12 11 8 6 5 5 7 8 9 10 8 7 8 9 5 9 8 6 9 8 12 10 10 11 11 7 5 5 4 4 4 5 5 6 7 8 9 10 11 10 11 11
8 8 8 8 8 8 7 7 7 8 9 9 9 8 7 7 8 9 9 8 9 10 7 8 8 8 8 6 8 8 10 9 13 7 10 12 9 6 5 5 4 3 3 5 5 6 6 8 9 10 10 10 11 11
8 8 8 8 8 7 7 7 7 7 6 8 9 10 9 8 12 12 13 10 10 8 7 7 8 7 7 7 8 9 11 12 7 11 12 10 6 5 5 4 4 3 3 3 5 5 6 7 8 9 10 10 10 10
8 8 8 7 7 7 7 7 6 7 9 11 11 13 11 12 11 9 9 8 7 6 6 6 7 8 7 9 9 11 9 9 13 14 12 8 6 5 4 4 4 4 4 4 4 5 6 7 8 9 9 9 10 11
8 8 8 8 8 7 7 6 6 7 9 12 11 13 10 8 7 7 6 6 6 5 7 8 7 7 9 10 9 10 12 14 12 12 9 6 5 5 5 4 4 4 4 4 4 4 5 6 7 8 9 9 10 10
8 8 8 8 8 7 7 7 8 8 9 11 11 11 8 8 8 7 8 7 5 6 7 7 8 10 11 10 12 12 13 14 12 8 6 5 5 5 4 4 3 3 4 4 4 4 4 5 6 7 8 9 10 10
8 10 9 8 7 7 7 9 9 10 10 10 10 8 8 7 7 6 6 7 5 7 8 8 11 11 9 12 13 10 12 9 7 6 5 5 5 5 4 4 3 3 4 4 4 4 4 4 5 6 8 9 9 10
10 9 8 7 7 8 8 8 9 10 11 9 10 7 6 5 5 6 5 5 6 7 6 8 7 10 12 13 12 9 7 6 5 5 5 4 4 4 3 4 3 3 3 4 3 4 4 4 4 6 7 7 8 9
9 8 7 7 7 8 11 9 8 11 9 7 6 5 5 5 4 4 4 5 5 5 6 7 9 9 9 7 8 7 6 6 6 5 4 4 3 3 3 3 3 3 3 3 3 4 4 3 3 4 6 6 7 8
7 7 7 7 7 10 11 9 7 9 10 8 6 6 5 6 5 4 5 5 7 7 8 8 8 7 7 6 5 5 5 4 5 6 5 5 3 3 3 3 3 3 3 3 3 5 4 4 4 4 5 6 7 8
8 8 7 7 8 8 9 9 9 8 8 8 6 6 6 5 6 6 7 5 7 8 8 6 6 5 4 4 3 3 4 4 5 5 5 5 3 3 3 3 3 3 3 3 4 4 5 4 4 4 6 5 6 6
8 8 8 6 8 8 8 7 9 8 8 7 6 6 7 7 7 6 5 7 7 6 5 6 6 5 5 5 4 4 3 3 3 3 5 5 4 4 4 3 3 4 3 3 3 3 3 3 4 4 5 6 7 7
7 7 7 7 10 11 11 7 10 8 9 8 7 9 9 9 7 5 7 6 6 5 4 5 5 4 4 4 4 3 4 4 4 4 3 3 3 3 3 3 3 3 4 3 2 3 3 6 6 5 6 6 7 8
7 9 10 10 10 12 8 10 8 8 8 9 10 12 10 9 7 7 9 9 8 6 7 8 6 7 6 5 6 6 5 5 5 5 5 4 4 4 3 3 2 2 2 2 2 3 4 4 6 5 6 6 7 7
14 14 11 15 10 12 12 11 10 10 11 10 11 11 10 8 10 9 11 10 8 8 8 8 8 7 8 7 6 6 5 6 6 7 5 4 4 3 3 3 2 2 2 3 3 4 4 4 5 5 5 6 6 7
17 13 13 11 11 12 11 12 11 11 11 11 11 9 8 9 10 12 11 9 9 9 9 9 9 9 8 8 8 8 8 7 7 7 6 4 3 4 4 4 4 3 1 2 3 3 4 4 4 5 5 6 9 7
16 14 10 8 8 9 10 9 8 10 12 12 10 10 10 12 13 11 8 7 8 8 7 6 7 8 9 9 8 8 8 8 8 7 5 3 3 3 3 3 4 2 1 2 2 3 4 5 5 5 6 6 7 7
11 10 12 10 9 9 10 10 11 11 10 8 8 10 12 13 13 9 8 7 7 6 6 7 7 7 8 8 8 8 9 9 8 6 4 5 4 4 5 4 4 7 2 1 2 3 3 4 4 5 5 6 6 6
10 8 9 11 10 9 10 10 10 8 7 7 9 9 11 9 8 9 8 8 7 7 9 9 9 8 8 7 7 7 9 10 11 12 12 11 10 8 6 5 4 3 2 3 9 5 3 4 5 6 6 6 7 7
10 8 10 10 10 10 8 7 8 7 6 6 7 8 9 9 9 8 8 8 9 9 9 8 8 9 10 10 10 9 9 10 11 12 13 12 11 9 8 8 7 5 3 3 4 6 9 7 7 6 7 7 7 8
7 8 9 9 9 7 6 5 5 6 7 7 6 8 9 9 8 8 9 9 8 8 9 9 9 10 10 11 11 11 11 10 11 12 12 11 10 10 9 8 8 5 4 4 4 5 6 6 6 8 9 9 9 9
7 8 8 10 8 5 5 6 6 7 7 8 9 7 8 9 11 10 9 9 9 10 10 10 10 10 10 10 10 10 11 10 10 11 12 12 12 11 10 9 9 8 7 7 7 7 6 6 7 7 9 9 9 9
7 7 8 8 8 8 6 7 8 9 9 10 10 9 10 10 13 10 7 8 9 10 10 9 8 8 9 10 10 10 10 10 11 11 12 12 12 13 12 10 10 10 9 10 10 10 10 10 10 10 11 11 11 11